Location: Iglesias
(39.3170°N, 8.5330°E)
Time: 11:29:37
(UTC+02:00)

ISS - Visible Passes

Search period start: 11 May 2021 00:00
Search period end: 21 May 2021 00:00
Orbit: 418 x 421 km, 51.6° (Epoch: 11 May)

Date Brightness Start Highest point End Pass type
(mag) Time Alt. Az. Time Alt. Az. Time Alt. Az.
11 May -0.2 02:04:21 11° NNE 02:04:21 11° NNE 02:04:39 10° NNE visible
11 May -0.4 03:40:00 10° N 03:40:49 11° N 03:41:40 10° NNE visible
11 May -1.2 05:15:49 10° NNW 05:18:36 23° NNE 05:21:23 10° E visible
12 May -0.3 02:52:34 10° N 02:53:05 10° N 02:53:35 10° N visible
12 May -0.7 04:28:37 10° NNW 04:30:59 18° NNE 04:33:21 10° ENE visible
13 May -0.2 02:05:02 10° N 02:05:19 11° N 02:06:06 10° N visible
13 May -0.5 03:41:25 10° NNW 03:43:19 14° NNE 03:45:13 10° NE visible
13 May -2.8 05:17:26 10° NW 05:20:44 52° NE 05:24:03 10° ESE visible
14 May -0.2 01:18:38 11° N 01:18:38 11° N 01:18:53 10° NNE visible
14 May -0.3 02:54:16 10° NNW 02:55:37 12° N 02:56:59 10° NE visible
14 May -1.9 04:30:07 10° NW 04:33:14 33° NNE 04:36:20 10° E visible
14 May -2.2 21:13:39 10° S 21:15:54 17° SE 21:18:10 10° E visible
14 May -2.9 22:49:10 10° WSW 22:52:26 49° NW 22:55:37 11° NE visible
15 May -0.5 00:28:04 10° NW 00:29:53 14° NNW 00:31:42 10° NNE visible
15 May -0.2 02:07:03 10° N 02:07:53 11° N 02:08:42 10° NNE visible
15 May -1.2 03:42:52 10° NNW 03:45:40 23° NNE 03:48:27 10° E visible
15 May -3.6 05:19:21 10° WNW 05:22:38 49° SW 05:25:54 10° SSE visible
15 May -3.8 22:01:38 10° SW 22:04:58 85° NW 22:08:21 10° NE visible
15 May -0.7 23:39:55 10° WNW 23:42:12 17° NNW 23:44:31 10° NNE visible
16 May -0.1 01:19:39 10° N 01:20:08 10° N 01:20:37 10° N visible
16 May -0.8 02:55:40 10° NNW 02:58:03 18° NNE 03:00:25 10° ENE visible
16 May -3.9 04:31:51 10° NW 04:35:14 89° SW 04:38:36 10° SE visible
16 May -3.7 21:14:18 10° SW 21:17:35 53° SE 21:20:52 10° ENE visible
16 May -1.2 22:51:51 10° W 22:54:35 22° NNW 22:57:19 10° NNE visible
17 May -0.2 00:31:38 10° NNW 00:32:23 11° N 00:33:08 10° N visible
17 May -0.5 02:08:29 10° NNW 02:10:22 14° NNE 02:12:16 10° NE visible
17 May -3.0 03:45:03 14° NW 03:47:47 53° NE 03:51:06 10° ESE visible
17 May -2.1 05:22:09 10° W 05:24:17 16° SW 05:26:26 10° S visible
17 May -1.8 22:03:57 10° W 22:07:00 31° NNW 22:10:04 10° NE visible
17 May -0.3 23:43:22 10° NNW 23:44:38 12° N 23:45:54 10° NNE visible
18 May -0.3 01:21:18 10° NNW 01:22:39 12° N 01:22:56 12° NNE visible
18 May -2.7 21:16:13 10° WSW 21:19:28 49° NW 21:22:45 10° NE visible
18 May -0.5 22:55:07 10° NW 22:56:55 14° NNW 22:58:44 10° NNE visible
19 May -0.3 00:34:05 10° N 00:34:55 11° N 00:35:44 10° NNE visible
19 May -0.7 22:06:57 10° WNW 22:09:14 17° NNW 22:11:32 10° NNE visible
19 May -0.3 23:46:42 10° N 23:47:09 10° N 23:47:38 10° N visible
20 May -0.4 01:22:41 10° NNW 01:23:17 13° NNW 01:23:17 13° NNW visible
20 May -1.1 21:18:54 10° WNW 21:21:36 22° NNW 21:24:19 10° NNE visible
20 May -0.4 22:58:40 10° NNW 22:59:24 10° N 23:00:08 10° N visible
